This demonstration page uses our WeatherBlox Daily Observations layout. Learn more.

Left ArrowRight Arrow

38.89511, -77.03637

Hourly Observations for May 8, 2017

Temp ( °F °C ) Dew Point ( °F °C ) Humidity (%) Winds ( mph kmh ) Pressure ( in mb ) Visibility ( mi km ) Precip ( " mm )
12:52 am 00:52 Mostly Cloudy 54 12.2 35 1.7 49 49 WNW 7 11 29.90 1013 10 16 0.00 0.00
1:52 am 01:52 Partly Cloudy 53 11.7 35 1.7 51 51 W 7 11 29.91 1013 10 16 0.00 0.00
2:52 am 02:52 Mostly Clear 50 10 35 1.7 57 57 NW 8 13 29.91 1013 10 16 0.00 0.00
3:52 am 03:52 Mostly Clear 49 9.4 36 2.2 61 61 WNW 7 11 29.92 1013 10 16 0.00 0.00
4:52 am 04:52 Mostly Cloudy 48 8.9 36 2.2 63 63 W 7 11 29.94 1014 10 16 0.00 0.00
5:52 am 05:52 Partly Cloudy 47 8.3 36 2.2 66 66 W 8 13 29.96 1015 10 16 0.00 0.00
6:52 am 06:52 Partly Cloudy 49 9.4 35 1.7 59 59 W 9 15 29.98 1015 10 16 0.00 0.00
7:52 am 07:52 Partly Cloudy 52 11.1 32 0 47 47 NW 9 15 30.00 1016 10 16 0.00 0.00
8:52 am 08:52 Mostly Sunny 54 12.2 29 -1.7 38 38 NNW 14 22 30.01 1016 10 16 0.00 0.00
9:52 am 09:52 Mostly Sunny 56 13.3 29 -1.7 36 36 NNW 13 20 30.01 1016 10 16 0.00 0.00
10:52 am 10:52 Mostly Sunny 56 13.3 26 -3.3 32 32 WNW 17 28 30.01 1016 10 16 0.00 0.00
11:52 am 11:52 Mostly Sunny 60 15.6 27 -2.8 28 28 NW 17 28 30.00 1016 10 16 0.00 0.00
12:52 pm 12:52 Mostly Sunny 59 15 27 -2.8 29 29 NNW 9 15 29.98 1015 10 16 0.00 0.00
1:52 pm 13:52 Partly Cloudy 60 15.6 28 -2.2 30 30 VRB 6 9 29.96 1015 10 16 0.00 0.00
2:52 pm 14:52 Partly Cloudy 63 17.2 27 -2.8 26 26 WNW 14 22 29.96 1014 10 16 0.00 0.00
3:52 pm 15:52 Mostly Cloudy 64 17.8 28 -2.2 26 26 W 13 20 29.93 1014 10 16 0.00 0.00
4:38 pm 16:38 Mostly Cloudy 63 17 27 -3 25 25 W 14 22 29.94 1014 10 16 0.00 0.00
4:52 pm 16:52 Mostly Cloudy 64 17.8 28 -2.2 26 26 WNW 13 20 29.93 1013 10 16 0.00 0.00
5:52 pm 17:52 Partly Cloudy 63 17.2 27 -2.8 26 26 W 8 13 29.93 1013 10 16 0.00 0.00
6:52 pm 18:52 Mostly Cloudy 63 17.2 26 -3.3 25 25 WNW 14 22 29.93 1013 10 16 0.00 0.00
7:52 pm 19:52 Partly Cloudy 62 16.7 27 -2.8 26 26 WNW 10 17 29.93 1014 10 16 0.00 0.00
8:52 pm 20:52 Partly Cloudy 58 14.4 30 -1.1 35 35 NNW 6 9 29.95 1014 10 16 0.00 0.00
9:52 pm 21:52 Mostly Cloudy 57 13.9 30 -1.1 36 36 NNW 7 11 29.98 1015 10 16 0.00 0.00
10:52 pm 22:52 Partly Cloudy 57 13.9 29 -1.7 34 34 N 5 7 29.96 1015 10 16 0.00 0.00
11:52 pm 23:52 Mostly Cloudy 54 12.2 39 3.9 57 57 Calm 29.98 1015 10 16 0.00 0.00

Powered by AerisWeather